KB1DML-3 Weather Reports


Display with metric or nautical units.
time (UTC)temp
F
wind
direction
speed
MPH
gust
MPH
rain 1hr
in
rain 24hr
in
rain mn
in
humidity
%
barometer
mb
20260906150517 65 45 15.0 19.0 0.00 0.04 0.04 69 1013.5
20260906150038 65 45 15.0 20.0 0.00 0.04 0.04 69 1013.5
20260906145517 65 45 15.0 20.0 0.00 0.04 0.04 68 1013.4
20260906145037 65 23 16.0 21.0 0.00 0.04 0.04 68 1013.4
20260906144517 65 45 14.0 20.0 0.00 0.04 0.04 70 1013.4
20260906144017 64 45 16.0 20.0 0.00 0.04 0.04 71 1013.3
20260906143518 64 45 16.0 24.0 0.00 0.04 0.04 71 1013.3
20260906143017 64 45 15.0 21.0 0.00 0.04 0.04 71 1013.4
20260906142518 64 45 17.0 23.0 0.00 0.04 0.04 71 1013.3
20260906142018 64 45 17.0 23.0 0.00 0.04 0.04 71 1013.3
20260906141537 64 45 17.0 23.0 0.00 0.04 0.04 71 1013.3
20260906141017 64 45 15.0 23.0 0.00 0.04 0.04 72 1013.3
20260906140517 63 45 16.0 21.0 0.00 0.04 0.04 73 1013.4
20260906140017 63 45 16.0 21.0 0.00 0.04 0.04 73 1013.4
20260906135517 63 45 16.0 20.0 0.00 0.04 0.04 72 1013.4
20260906135017 63 45 15.0 22.0 0.00 0.04 0.04 72 1013.3
20260906134518 63 45 16.0 22.0 0.00 0.04 0.04 72 1013.3
20260906134017 63 45 17.0 22.0 0.00 0.04 0.04 72 1013.3
20260906133517 63 45 17.0 22.0 0.00 0.04 0.04 72 1013.3
20260906133017 63 45 16.0 22.0 0.00 0.04 0.04 72 1013.2
20260906132518 63 45 13.0 20.0 0.00 0.04 0.04 75 1013.2
20260906132057 63 45 15.0 21.0 0.00 0.04 0.04 76 1013.2
20260906131537 63 45 16.0 22.0 0.00 0.04 0.04 75 1013.2
20260906131017 63 45 17.0 22.0 0.00 0.04 0.04 74 1013.2
20260906130517 63 45 16.0 23.0 0.00 0.04 0.04 76 1013.2
20260906130038 63 45 16.0 22.0 0.00 0.04 0.04 76 1013.1
20260906125517 63 45 15.0 23.0 0.00 0.04 0.04 76 1013.1
20260906125017 63 45 16.0 23.0 0.00 0.04 0.04 76 1013.1
20260906124537 63 45 16.0 23.0 0.00 0.04 0.04 75 1013.1
20260906124017 63 45 17.0 24.0 0.00 0.04 0.04 76 1013.1
20260906123538 63 45 15.0 22.0 0.00 0.04 0.04 77 1013.1
20260906123017 63 45 16.0 24.0 0.00 0.04 0.04 77 1013.0
20260906122517 63 45 18.0 26.0 0.00 0.04 0.04 77 1012.9
20260906122017 63 45 18.0 25.0 0.00 0.04 0.04 76 1012.9
20260906121517 63 45 20.0 28.0 0.00 0.04 0.04 77 1012.8
20260906121017 63 45 20.0 28.0 0.00 0.04 0.04 76 1012.8
20260906120517 63 45 20.0 28.0 0.00 0.04 0.04 77 1012.7
20260906120017 63 68 20.0 27.0 0.00 0.04 0.04 77 1012.7
20260906115517 63 45 21.0 31.0 0.00 0.04 0.04 76 1012.6
20260906115017 63 45 21.0 27.0 0.00 0.04 0.04 76 1012.5
20260906114517 63 45 20.0 27.0 0.00 0.04 0.04 76 1012.5
20260906114017 63 45 21.0 28.0 0.00 0.04 0.04 76 1012.4
20260906113517 63 45 20.0 26.0 0.00 0.04 0.04 76 1012.4
20260906113017 63 45 19.0 25.0 0.00 0.04 0.04 77 1012.4
20260906112537 63 45 20.0 27.0 0.00 0.04 0.04 77 1012.3
20260906112017 63 45 20.0 28.0 0.00 0.04 0.04 77 1012.2
20260906111517 63 45 20.0 26.0 0.00 0.04 0.04 77 1012.1
20260906111037 63 45 20.0 28.0 0.00 0.04 0.04 78 1012.0
20260906110516 63 45 19.0 27.0 0.00 0.04 0.04 79 1011.9
20260906110017 63 45 20.0 25.0 0.00 0.04 0.04 79 1011.9
20260906105517 63 45 19.0 26.0 0.00 0.04 0.04 78 1012.0
20260906105016 63 45 19.0 24.0 0.00 0.04 0.04 77 1011.9
20260906104517 63 45 18.0 25.0 0.00 0.04 0.04 77 1011.8
20260906104017 63 45 19.0 25.0 0.00 0.04 0.04 76 1011.9
20260906103516 63 45 18.0 24.0 0.00 0.04 0.04 75 1011.8
20260906103017 63 68 17.0 22.0 0.00 0.04 0.04 75 1011.7
20260906102517 62 68 16.0 22.0 0.00 0.04 0.04 77 1011.7
20260906102017 62 45 16.0 22.0 0.00 0.04 0.04 77 1011.6
20260906101537 62 45 17.0 23.0 0.01 0.04 0.04 78 1011.6
20260906101017 62 68 16.0 23.0 0.02 0.04 0.04 79 1011.5
20260906100538 62 68 17.0 22.0 0.02 0.04 0.04 80 1011.5
20260906100017 62 68 18.0 24.0 0.03 0.04 0.04 81 1011.5
20260906095517 62 68 19.0 25.0 0.03 0.04 0.04 81 1011.4
20260906095016 62 45 18.0 25.0 0.04 0.04 0.04 82 1011.5
20260906094517 62 45 17.0 23.0 0.04 0.04 0.04 82 1011.4
20260906094037 62 45 18.0 22.0 0.04 0.04 0.04 83 1011.3
20260906093517 62 45 16.0 22.0 0.04 0.04 0.04 83 1011.3
20260906093017 62 45 15.0 18.0 0.04 0.04 0.04 83 1011.3
20260906092516 62 45 14.0 18.0 0.04 0.04 0.04 83 1011.4
20260906092016 62 45 15.0 20.0 0.04 0.04 0.04 83 1011.5
20260906091517 62 23 13.0 17.0 0.03 0.03 0.03 82 1011.6
20260906091016 62 23 15.0 19.0 0.02 0.02 0.02 82 1011.6
20260906090516 63 45 12.0 19.0 0.02 0.02 0.02 81 1011.6
20260906090016 63 45 12.0 17.0 0.01 0.01 0.01 80 1011.6
20260906085516 63 45 12.0 16.0 0.01 0.01 0.01 79 1011.5
20260906085016 63 45 13.0 19.0 0.00 0.00 0.00 79 1011.4
20260906084517 63 68 14.0 19.0 0.00 0.00 0.00 78 1011.5
20260906084017 63 68 15.0 22.0 0.00 0.00 0.00 77 1011.5
20260906083516 63 68 16.0 19.0 0.00 0.00 0.00 76 1011.4
20260906083037 63 68 17.0 22.0 0.00 0.00 0.00 75 1011.4
20260906082517 63 68 18.0 20.0 0.00 0.00 0.00 75 1011.4
20260906082037 63 68 16.0 21.0 0.00 0.00 0.00 75 1011.3
20260906081517 63 68 20.0 23.0 0.00 0.00 0.00 74 1011.4
20260906081016 63 68 20.0 24.0 0.00 0.00 0.00 74 1011.3
20260906080536 63 68 20.0 24.0 0.00 0.00 0.00 75 1011.2
20260906080037 63 68 17.0 23.0 0.00 0.00 0.00 76 1011.2
20260906075517 63 68 17.0 22.0 0.00 0.00 0.00 75 1011.2
20260906075037 63 68 20.0 24.0 0.00 0.00 0.00 76 1011.2
20260906074516 63 68 20.0 24.0 0.00 0.00 0.00 76 1011.1
20260906074016 63 68 18.0 23.0 0.00 0.00 0.00 76 1011.0
20260906073517 63 68 19.0 23.0 0.00 0.00 0.00 76 1011.0
20260906073016 63 68 19.0 22.0 0.00 0.00 0.00 75 1011.0
20260906072517 63 68 19.0 25.0 0.00 0.00 0.00 75 1011.1
20260906072036 63 68 18.0 25.0 0.00 0.00 0.00 75 1011.0
20260906071516 63 68 18.0 22.0 0.00 0.00 0.00 75 1011.0
20260906071016 63 68 16.0 21.0 0.00 0.00 0.00 76 1010.9
20260906070516 63 68 18.0 22.0 0.00 0.00 0.00 76 1010.9
20260906070036 63 68 16.0 20.0 0.00 0.00 0.00 76 1010.9
20260906065516 63 68 17.0 21.0 0.00 0.00 0.00 76 1011.0
20260906065016 63 90 17.0 21.0 0.00 0.00 0.00 75 1010.8
20260906064517 64 68 17.0 21.0 0.00 0.00 0.00 76 1010.8
20260906064036 64 68 17.0 21.0 0.00 0.00 0.00 76 1010.8
20260906063516 64 68 17.0 21.0 0.00 0.00 0.00 76 1010.8
20260906063016 64 68 17.0 21.0 0.00 0.00 0.00 76 1010.7
20260906062516 64 68 17.0 21.0 0.00 0.00 0.00 76 1010.7
20260906062037 64 68 16.0 21.0 0.00 0.00 0.00 76 1010.8
20260906061516 64 90 17.0 19.0 0.00 0.00 0.00 76 1010.9
20260906061016 64 68 16.0 20.0 0.00 0.00 0.00 76 1010.9
20260906060517 64 68 16.0 21.0 0.00 0.00 0.00 76 1010.9
20260906060016 64 68 15.0 19.0 0.00 0.00 0.00 77 1010.9
20260906055516 64 68 16.0 22.0 0.00 0.00 0.00 77 1010.9
20260906055016 64 68 18.0 23.0 0.00 0.00 0.00 77 1010.9
20260906054516 64 68 18.0 23.0 0.00 0.00 0.00 76 1010.8
20260906054017 65 68 18.0 22.0 0.00 0.00 0.00 76 1010.9
20260906053516 65 68 17.0 22.0 0.00 0.00 0.00 75 1010.9
20260906053017 65 68 17.0 22.0 0.00 0.00 0.00 75 1010.9
20260906052516 65 68 16.0 20.0 0.00 0.00 0.00 75 1010.9
20260906052016 65 68 16.0 19.0 0.00 0.00 0.00 74 1011.0
20260906051517 65 68 15.0 19.0 0.00 0.00 0.00 74 1010.9
20260906051017 65 68 17.0 21.0 0.00 0.00 0.00 73 1011.0
20260906050516 65 68 15.0 20.0 0.00 0.00 0.00 73 1011.0
20260906050016 65 68 15.0 19.0 0.00 0.00 0.00 72 1010.9
20260906045516 65 68 14.0 20.0 0.00 0.00 0.00 73 1010.9
20260906045016 66 68 15.0 20.0 0.00 0.00 0.00 74 1011.0
20260906044516 66 68 16.0 19.0 0.00 0.00 0.00 74 1010.9
20260906044016 66 68 15.0 19.0 0.00 0.00 0.00 76 1010.8
20260906043516 66 68 15.0 19.0 0.00 0.00 0.00 76 1010.8
20260906043016 66 68 15.0 19.0 0.00 0.00 0.00 76 1010.9
20260906042536 66 68 14.0 18.0 0.00 0.00 0.00 77 1010.8
20260906042016 66 68 13.0 17.0 0.00 0.00 0.00 77 1010.8
20260906041516 66 68 12.0 17.0 0.00 0.00 0.00 78 1010.8
20260906041016 65 68 11.0 16.0 0.00 0.00 0.00 79 1010.8
20260906040517 65 23 8.0 13.0 0.00 0.00 0.00 79 1010.7
20260906040036 65 45 10.0 14.0 0.00 0.00 0.00 78 1010.7
20260906035517 65 45 11.0 16.0 0.00 0.00 0.00 80 1010.6
20260906035017 65 23 9.0 12.0 0.00 0.00 0.00 82 1010.6
20260906034516 65 23 8.0 12.0 0.00 0.00 0.00 82 1010.6
20260906034016 65 23 6.0 10.0 0.00 0.00 0.00 82 1010.7
20260906033517 65 338 6.0 8.0 0.00 0.00 0.00 81 1010.6
20260906033017 66 338 5.0 8.0 0.00 0.00 0.00 80 1010.6
20260906032516 66 23 6.0 10.0 0.00 0.00 0.00 79 1010.5
20260906032016 66 23 8.0 11.0 0.00 0.00 0.00 78 1010.5
20260906031516 66 23 10.0 12.0 0.00 0.00 0.00 78 1010.6
20260906031016 66 23 9.0 12.0 0.00 0.00 0.00 77 1010.6
20260906030516 66 45 9.0 12.0 0.00 0.00 0.00 77 1010.6
20260906030016 66 45 9.0 13.0 0.00 0.00 0.00 76 1010.5
20260906025536 66 45 8.0 12.0 0.00 0.00 0.00 76 1010.5
20260906025017 66 45 8.0 11.0 0.00 0.00 0.00 76 1010.5
20260906024516 66 45 9.0 13.0 0.00 0.00 0.00 75 1010.5
20260906024016 66 45 8.0 11.0 0.00 0.00 0.00 76 1010.5
20260906023517 66 45 9.0 11.0 0.00 0.00 0.00 76 1010.4
20260906023017 66 45 8.0 11.0 0.00 0.00 0.00 76 1010.4
20260906022537 66 45 9.0 11.0 0.00 0.00 0.00 75 1010.4
20260906022016 66 68 8.0 12.0 0.00 0.00 0.00 75 1010.4
20260906021516 66 68 9.0 12.0 0.00 0.00 0.00 75 1010.5
20260906021016 66 45 10.0 14.0 0.00 0.00 0.00 75 1010.5
20260906020516 66 45 10.0 12.0 0.00 0.00 0.00 76 1010.5
20260906020016 66 45 9.0 12.0 0.00 0.00 0.00 76 1010.5
20260906015536 66 45 7.0 12.0 0.00 0.00 0.00 77 1010.5
20260906015016 66 45 9.0 12.0 0.00 0.00 0.00 76 1010.5
20260906014516 66 45 8.0 11.0 0.00 0.00 0.00 76 1010.6
20260906014017 66 45 9.0 12.0 0.00 0.00 0.00 76 1010.5
20260906013516 66 45 7.0 10.0 0.00 0.00 0.00 76 1010.5
20260906013016 66 45 7.0 11.0 0.00 0.00 0.00 76 1010.6
20260906012516 66 45 8.0 10.0 0.00 0.00 0.00 76 1010.6
20260906012017 66 45 7.0 10.0 0.00 0.00 0.00 75 1010.5
20260906011516 66 68 7.0 10.0 0.00 0.00 0.00 75 1010.4
20260906011016 66 68 8.0 12.0 0.00 0.00 0.00 75 1010.4
20260906010536 66 45 8.0 12.0 0.00 0.00 0.00 76 1010.4
20260906010016 66 45 8.0 12.0 0.00 0.00 0.00 76 1010.4
20260906005516 66 45 8.0 10.0 0.00 0.00 0.00 75 1010.4
20260906005016 66 45 7.0 10.0 0.00 0.00 0.00 75 1010.3
20260906004516 66 45 7.0 11.0 0.00 0.00 0.00 76 1010.3
20260906004017 66 45 7.0 11.0 0.00 0.00 0.00 75 1010.3
20260906003516 66 45 8.0 12.0 0.00 0.00 0.00 76 1010.4
20260906003016 66 45 8.0 12.0 0.00 0.00 0.00 76 1010.2
20260906002516 66 45 9.0 12.0 0.00 0.00 0.00 76 1010.2
20260906002016 66 45 9.0 12.0 0.00 0.00 0.00 76 1010.1
20260906001536 66 45 10.0 13.0 0.00 0.00 0.00 76 1010.1
20260906001016 66 45 9.0 12.0 0.00 0.00 0.00 76 1010.1
20260906000536 66 45 8.0 10.0 0.00 0.00 0.00 76 1010.1
20260906000016 66 45 6.0 10.0 0.00 0.00 0.00 76 1010.0
20260905235516 65 45 6.0 9.0 0.00 0.00 0.00 76 1010.0
20260905235016 66 45 5.0 7.0 0.00 0.00 0.00 76 1009.9
20260905234516 66 45 5.0 6.0 0.00 0.00 0.00 76 1009.9
20260905234039 66 45 6.0 9.0 0.00 0.00 0.00 76 1009.9
20260905233516 66 45 6.0 10.0 0.00 0.00 0.00 76 1009.9
20260905233016 66 45 7.0 10.0 0.00 0.00 0.00 76 1009.8
20260905232516 66 45 8.0 10.0 0.00 0.00 0.00 76 1009.8
20260905232016 66 45 7.0 11.0 0.00 0.00 0.00 77 1009.7
20260905231516 66 45 7.0 10.0 0.00 0.00 0.00 76 1009.7
20260905231017 66 68 6.0 9.0 0.00 0.00 0.00 77 1009.7
20260905230536 66 68 9.0 11.0 0.00 0.00 0.00 76 1009.6
20260905230016 66 68 8.0 11.0 0.00 0.00 0.00 77 1009.6
20260905225516 66 68 8.0 11.0 0.00 0.00 0.00 76 1009.6
20260905225017 66 68 9.0 11.0 0.00 0.00 0.00 76 1009.7
20260905224516 66 68 9.0 12.0 0.00 0.00 0.00 76 1009.7
20260905224016 66 68 11.0 12.0 0.00 0.00 0.00 76 1009.8
20260905223516 66 68 11.0 13.0 0.00 0.00 0.00 76 1009.8
20260905223016 66 68 11.0 13.0 0.00 0.00 0.00 76 1009.7
20260905222536 66 68 10.0 13.0 0.00 0.00 0.00 76 1009.7
20260905222016 66 68 10.0 12.0 0.00 0.00 0.00 75 1009.6
20260905221536 66 68 10.0 13.0 0.00 0.00 0.00 75 1009.6
20260905221016 66 68 11.0 13.0 0.00 0.00 0.00 75 1009.5
20260905220516 66 68 10.0 13.0 0.00 0.00 0.00 75 1009.5
20260905220016 66 68 11.0 13.0 0.00 0.00 0.00 75 1009.4
20260905215516 66 68 10.0 13.0 0.00 0.00 0.00 76 1009.4
20260905215016 66 68 9.0 11.0 0.00 0.00 0.00 76 1009.3
20260905214536 66 68 8.0 10.0 0.00 0.00 0.00 75 1009.2
20260905214016 66 68 7.0 9.0 0.00 0.00 0.00 75 1009.1
20260905213516 66 68 6.0 9.0 0.00 0.00 0.00 76 1009.0
20260905213016 66 68 5.0 8.0 0.00 0.00 0.00 76 1009.1
20260905212516 66 68 7.0 9.0 0.00 0.00 0.00 76 1009.2
20260905212017 66 90 7.0 8.0 0.00 0.00 0.00 76 1009.1
20260905211516 66 90 7.0 10.0 0.00 0.00 0.00 76 1009.1
20260905211016 66 90 9.0 11.0 0.00 0.00 0.00 76 1009.1
20260905210536 66 90 8.0 10.0 0.00 0.00 0.00 77 1009.1
20260905210036 66 90 8.0 11.0 0.00 0.00 0.00 77 1009.0
20260905205516 66 90 7.0 9.0 0.00 0.00 0.00 77 1009.0
20260905205016 65 90 8.0 10.0 0.00 0.00 0.00 77 1009.1
20260905204516 66 90 8.0 12.0 0.00 0.00 0.00 77 1009.1
20260905204016 65 90 9.0 15.0 0.00 0.00 0.00 78 1009.1
20260905203516 65 90 9.0 12.0 0.00 0.00 0.00 78 1009.1
20260905203015 65 90 10.0 13.0 0.00 0.00 0.00 78 1009.1
20260905202516 65 90 8.0 11.0 0.00 0.00 0.00 79 1009.1
20260905202036 65 90 10.0 13.0 0.00 0.00 0.00 78 1009.0
20260905201515 65 90 9.0 13.0 0.00 0.00 0.00 79 1008.9
20260905201016 65 90 10.0 12.0 0.00 0.00 0.00 79 1008.9
20260905200516 64 90 10.0 13.0 0.00 0.00 0.00 80 1008.9
20260905200016 64 90 10.0 13.0 0.00 0.00 0.00 81 1008.9
20260905195515 64 68 11.0 15.0 0.00 0.00 0.00 81 1009.0
20260905195015 64 45 4.0 8.0 0.00 0.00 0.00 81 1009.0
20260905194556 64 45 8.0 12.0 0.00 0.00 0.00 81 1009.0
20260905194015 64 45 10.0 14.0 0.00 0.00 0.00 81 1009.1
20260905193515 64 68 14.0 20.0 0.00 0.00 0.00 79 1009.1
20260905193016 65 68 18.0 21.0 0.00 0.00 0.00 78 1009.1
20260905192516 65 68 17.0 22.0 0.00 0.00 0.00 78 1009.1
20260905192016 66 68 17.0 20.0 0.00 0.00 0.00 78 1009.0
20260905191536 66 68 15.0 19.0 0.00 0.00 0.00 78 1009.0
20260905191056 66 68 14.0 18.0 0.00 0.00 0.00 79 1008.9
20260905190516 66 68 13.0 17.0 0.00 0.00 0.00 79 1009.0
20260905190016 66 68 14.0 18.0 0.00 0.00 0.00 79 1009.0
20260905185516 66 68 13.0 17.0 0.00 0.00 0.00 79 1009.0
20260905185016 66 68 14.0 17.0 0.00 0.00 0.00 79 1008.9
20260905184536 66 90 14.0 17.0 0.00 0.00 0.00 79 1008.9
20260905184036 66 90 15.0 17.0 0.00 0.00 0.00 79 1009.0
20260905183516 66 90 14.0 17.0 0.00 0.00 0.00 80 1009.0
20260905183016 66 90 14.0 18.0 0.00 0.00 0.00 80 1008.9
20260905182516 66 68 15.0 18.0 0.00 0.00 0.00 80 1008.9
20260905182016 66 68 15.0 20.0 0.00 0.00 0.00 80 1008.9
20260905181516 66 90 14.0 17.0 0.00 0.00 0.00 80 1008.9
20260905181016 66 68 14.0 17.0 0.00 0.00 0.00 81 1008.8
20260905180515 66 68 13.0 17.0 0.00 0.00 0.00 81 1008.7
20260905180016 66 68 14.0 19.0 0.00 0.00 0.00 82 1008.8
20260905175516 66 68 13.0 18.0 0.00 0.00 0.00 82 1008.7
20260905175015 66 68 14.0 17.0 0.00 0.00 0.00 82 1008.6
20260905174515 65 68 15.0 18.0 0.00 0.00 0.00 82 1008.5
20260905174015 65 68 15.0 18.0 0.00 0.00 0.00 82 1008.6
20260905173535 65 68 16.0 20.0 0.00 0.00 0.00 82 1008.6
20260905173016 65 68 16.0 20.0 0.00 0.00 0.00 82 1008.6
20260905172516 65 68 17.0 20.0 0.00 0.00 0.00 82 1008.6
20260905172016 65 68 16.0 19.0 0.00 0.00 0.00 83 1008.5
20260905171515 65 68 16.0 21.0 0.00 0.00 0.00 82 1008.4
20260905171015 65 68 18.0 22.0 0.00 0.00 0.00 82 1008.4
20260905170515 65 68 18.0 23.0 0.00 0.00 0.00 82 1008.4
20260905170015 65 68 19.0 23.0 0.00 0.00 0.00 82 1008.4
20260905165516 65 68 19.0 24.0 0.00 0.00 0.00 83 1008.4
20260905165015 65 68 19.0 26.0 0.00 0.00 0.00 83 1008.3
20260905164516 65 68 20.0 25.0 0.00 0.00 0.00 83 1008.2
20260905164036 65 68 22.0 27.0 0.00 0.00 0.00 82 1008.2
20260905163535 65 68 26.0 32.0 0.00 0.00 0.00 82 1008.3
20260905163015 65 68 26.0 32.0 0.00 0.00 0.00 82 1008.2
20260905162515 66 68 25.0 31.0 0.00 0.00 0.00 82 1008.2
20260905162015 66 68 27.0 32.0 0.00 0.00 0.00 81 1008.2
20260905161556 66 68 26.0 32.0 0.00 0.00 0.00 81 1008.1
20260905161016 66 68 23.0 32.0 0.00 0.00 0.00 81 1008.1
20260905160516 67 68 24.0 34.0 0.00 0.00 0.00 80 1008.1
20260905160015 68 45 25.0 34.0 0.00 0.00 0.00 79 1008.1
20260905155515 68 45 21.0 28.0 0.00 0.00 0.00 77 1008.1
20260905155016 68 45 22.0 28.0 0.00 0.00 0.00 77 1008.0
20260905154515 69 45 21.0 29.0 0.00 0.00 0.00 77 1008.0
20260905154015 69 45 21.0 28.0 0.00 0.00 0.00 76 1008.1
20260905153536 69 45 20.0 29.0 0.00 0.00 0.00 77 1008.0
20260905153019 68 45 19.0 28.0 0.00 0.00 0.00 78 1008.0
20260905152517 68 45 21.0 28.0 0.00 0.00 0.00 78 1008.0
20260905152017 68 45 21.0 30.0 0.00 0.00 0.00 78 1007.9
20260905151539 67 45 20.0 27.0 0.00 0.00 0.00 78 1007.9
20260905151017 67 45 21.0 29.0 0.00 0.00 0.00 78 1008.0